Location: Prairie Dale
(45.6972°N, 104.5033°W)
Time: 07:44:38
(UTC+00:00)

MOZHAYETS 4 - Visible Passes

Search period start: 27 June 2022 00:00
Search period end: 07 July 2022 00:00
Orbit: 660 x 679 km, 98.2° (Epoch: 27 June)

Date Brightness Start Highest point End Pass type
(mag) Time Alt. Az. Time Alt. Az. Time Alt. Az.
27 Jun 8.9 08:37:57 10° SE 08:42:16 40° ENE 08:46:35 10° N visible
27 Jun 9.0 10:15:46 10° SSW 10:19:28 24° W 10:23:12 10° NW visible
28 Jun 10.6 07:36:57 10° ENE 07:38:22 11° ENE 07:39:47 10° NE visible
28 Jun 7.8 09:10:22 12° SSE 09:14:41 83° ENE 09:19:19 10° NNW visible
29 Jun 10.0 08:07:02 10° ESE 08:10:29 21° ENE 08:13:56 10° NNE visible
29 Jun 8.0 09:43:19 13° S 09:47:15 47° W 09:51:43 10° NNW visible
30 Jun 8.9 08:38:27 10° SE 08:42:46 40° ENE 08:47:04 10° N visible
30 Jun 9.0 10:16:17 10° SSW 10:19:58 23° W 10:23:40 10° NW visible
01 Jul 10.6 07:37:25 10° ENE 07:38:51 11° ENE 07:40:18 10° NE visible
01 Jul 7.8 09:10:58 12° SSE 09:15:11 83° ENE 09:19:49 10° NNW visible
02 Jul 10.0 08:07:31 10° ESE 08:10:58 21° ENE 08:14:26 10° NNE visible
02 Jul 8.1 09:43:54 13° S 09:47:45 47° W 09:52:12 10° NNW visible
03 Jul 8.9 08:38:56 10° SE 08:43:14 41° ENE 08:47:33 10° N visible
03 Jul 9.0 10:16:50 10° SW 10:20:28 23° W 10:24:09 10° NW visible
04 Jul 10.6 07:37:53 10° ENE 07:39:20 11° ENE 07:40:48 10° NE visible
04 Jul 7.7 09:11:34 13° SSE 09:15:39 84° ENE 09:20:17 10° NNW visible
05 Jul 10.0 08:08:00 10° ESE 08:11:28 21° ENE 08:14:55 10° NNE visible
05 Jul 8.1 09:44:30 14° S 09:48:14 47° W 09:52:40 10° NNW visible
06 Jul 8.9 08:39:25 10° SE 08:43:43 41° ENE 08:48:02 10° N visible
06 Jul 9.0 10:17:26 11° SW 10:20:57 23° W 10:24:36 10° NW visible
